Hourly Weather Stafford

Today, 1 October, Thursday

Time Temperature Precipitation Wind Pressure Humidity
00:00 +9°C° 0 mm 3 mps 740 mmHg 95%
01:00 +9°C° 0 mm 3 mps 740 mmHg 95%
02:00 +9°C° 0 mm 2 mps 740 mmHg 96%
03:00 +9°C° 0 mm 2 mps 740 mmHg 96%
04:00 +9°C° 0 mm 2 mps 740 mmHg 95%
05:00 +9°C° 0 mm 2 mps 740 mmHg 95%
06:00 +9°C° 0 mm 2 mps 740 mmHg 94%
07:00 +9°C° 0 mm 3 mps 740 mmHg 91%
08:00 +9°C° 0 mm 3 mps 740 mmHg 88%
09:00 +10°C° 0 mm 3 mps 740 mmHg 84%
10:00 +10°C° 0 mm 3 mps 740 mmHg 78%
11:00 +11°C° 0 mm 3 mps 740 mmHg 72%
12:00 +12°C° 0 mm 3 mps 740 mmHg 66%
13:00 +12°C° 0.1 mm 3 mps 740 mmHg 64%
14:00 +13°C° 0.1 mm 2 mps 739 mmHg 62%
15:00 +13°C° 0.1 mm 2 mps 739 mmHg 61%
16:00 +12°C° 0 mm 2 mps 739 mmHg 66%
17:00 +10°C° 0 mm 2 mps 738 mmHg 71%
18:00 +10°C° 0 mm 1 mps 738 mmHg 76%
19:00 +8°C° 0 mm 2 mps 738 mmHg 77%
20:00 +8°C° 0 mm 2 mps 737 mmHg 78%
21:00 +8°C° 0 mm 2 mps 737 mmHg 80%
22:00 +8°C° 0 mm 3 mps 737 mmHg 81%
23:00 +7°C° 0 mm 3 mps 737 mmHg 83%

Tomorrow, 2 October, Friday

Time Temperature Precipitation Wind Pressure Humidity
00:00 +7°C° 0 mm 3 mps 736 mmHg 85%
01:00 +6°C° 0 mm 4 mps 736 mmHg 84%
02:00 +6°C° 0 mm 4 mps 736 mmHg 84%
03:00 +6°C° 0 mm 5 mps 736 mmHg 83%
04:00 +6°C° 0 mm 5 mps 737 mmHg 83%
05:00 +6°C° 0 mm 5 mps 737 mmHg 83%
06:00 +6°C° 0 mm 5 mps 737 mmHg 84%
07:00 +7°C° 0 mm 6 mps 738 mmHg 81%
08:00 +8°C° 0 mm 6 mps 738 mmHg 78%
09:00 +9°C° 0 mm 7 mps 738 mmHg 75%
10:00 +10°C° 0 mm 7 mps 738 mmHg 73%
11:00 +11°C° 0 mm 7 mps 738 mmHg 71%
12:00 +12°C° 0 mm 8 mps 738 mmHg 70%
13:00 +12°C° 0.1 mm 7 mps 738 mmHg 71%
14:00 +12°C° 0.1 mm 7 mps 738 mmHg 72%
15:00 +12°C° 0.1 mm 7 mps 738 mmHg 73%
16:00 +13°C° 0.1 mm 6 mps 739 mmHg 74%
17:00 +11°C° 0.1 mm 6 mps 739 mmHg 76%
18:00 +11°C° 0.1 mm 6 mps 739 mmHg 78%
19:00 +10°C° 0 mm 6 mps 739 mmHg 79%
20:00 +10°C° 0 mm 6 mps 740 mmHg 81%
21:00 +10°C° 0 mm 6 mps 740 mmHg 82%
22:00 +10°C° 0 mm 6 mps 739 mmHg 85%
23:00 +9°C° 0 mm 6 mps 739 mmHg 87%

Day after tomorrow, 3 October, Saturday

Time Temperature Precipitation Wind Pressure Humidity
00:00 +9°C° 0 mm 5 mps 739 mmHg 89%
01:00 +9°C° 0 mm 6 mps 738 mmHg 88%
02:00 +9°C° 0 mm 6 mps 738 mmHg 88%
03:00 +10°C° 0 mm 6 mps 737 mmHg 87%
04:00 +10°C° 0.6 mm 6 mps 737 mmHg 89%
05:00 +10°C° 0.6 mm 6 mps 737 mmHg 91%
06:00 +10°C° 0.6 mm 6 mps 737 mmHg 92%
07:00 +10°C° 0.3 mm 6 mps 736 mmHg 93%
08:00 +10°C° 0.3 mm 6 mps 736 mmHg 93%
09:00 +10°C° 0.3 mm 6 mps 735 mmHg 94%
10:00 +11°C° 0.1 mm 6 mps 734 mmHg 94%
11:00 +11°C° 0.1 mm 6 mps 734 mmHg 94%
12:00 +11°C° 0.1 mm 6 mps 733 mmHg 95%
13:00 +11°C° 1.5 mm 6 mps 732 mmHg 95%
14:00 +11°C° 1.5 mm 6 mps 732 mmHg 95%
15:00 +11°C° 1.5 mm 6 mps 731 mmHg 96%
16:00 +10°C° 2.6 mm 7 mps 730 mmHg 96%
17:00 +10°C° 2.6 mm 7 mps 729 mmHg 96%
18:00 +10°C° 2.6 mm 7 mps 729 mmHg 96%
19:00 +10°C° 2.6 mm 7 mps 728 mmHg 96%
20:00 +10°C° 2.6 mm 7 mps 727 mmHg 96%
21:00 +10°C° 2.6 mm 7 mps 726 mmHg 96%
22:00 +10°C° 2.9 mm 7 mps 726 mmHg 96%
23:00 +10°C° 2.9 mm 6 mps 725 mmHg 96%

4 October, Sunday

Time Temperature Precipitation Wind Pressure Humidity
00:00 +10°C° 2.9 mm 6 mps 725 mmHg 96%
01:00 +10°C° 1.2 mm 5 mps 724 mmHg 95%
02:00 +11°C° 1.2 mm 4 mps 724 mmHg 94%
03:00 +11°C° 1.2 mm 4 mps 724 mmHg 94%
04:00 +10°C° 0.1 mm 4 mps 724 mmHg 93%
05:00 +8°C° 0.1 mm 4 mps 724 mmHg 93%
06:00 +8°C° 0.1 mm 4 mps 724 mmHg 93%
07:00 +10°C° 0 mm 4 mps 724 mmHg 90%
08:00 +10°C° 0 mm 4 mps 724 mmHg 87%
09:00 +11°C° 0 mm 4 mps 724 mmHg 85%
10:00 +12°C° 0.1 mm 4 mps 724 mmHg 81%
11:00 +13°C° 0.1 mm 4 mps 725 mmHg 78%
12:00 +14°C° 0.1 mm 4 mps 725 mmHg 74%
13:00 +14°C° 0.6 mm 4 mps 725 mmHg 75%
14:00 +14°C° 0.6 mm 4 mps 726 mmHg 76%
15:00 +14°C° 0.6 mm 4 mps 726 mmHg 78%
16:00 +13°C° 0.5 mm 4 mps 726 mmHg 81%
17:00 +12°C° 0.5 mm 4 mps 727 mmHg 85%
18:00 +11°C° 0.5 mm 4 mps 727 mmHg 89%
19:00 +11°C° 0 mm 4 mps 728 mmHg 89%
20:00 +10°C° 0 mm 3 mps 728 mmHg 90%
21:00 +10°C° 0 mm 2 mps 729 mmHg 90%
22:00 +10°C° 0.1 mm 2 mps 729 mmHg 91%
23:00 +10°C° 0.1 mm 2 mps 729 mmHg 91%

5 October, Monday

Time Temperature Precipitation Wind Pressure Humidity
00:00 +10°C° 0.1 mm 2 mps 729 mmHg 91%
01:00 +10°C° 1.4 mm 2 mps 729 mmHg 93%
02:00 +10°C° 1.4 mm 3 mps 729 mmHg 94%
03:00 +10°C° 1.4 mm 3 mps 729 mmHg 95%
04:00 +10°C° 0.8 mm 3 mps 730 mmHg 95%
05:00 +10°C° 0.8 mm 3 mps 730 mmHg 95%
06:00 +10°C° 0.8 mm 3 mps 731 mmHg 95%
07:00 +10°C° 0 mm 4 mps 731 mmHg 94%
08:00 +11°C° 0 mm 4 mps 732 mmHg 92%
09:00 +11°C° 0 mm 4 mps 732 mmHg 91%
10:00 +12°C° 0.1 mm 5 mps 733 mmHg 87%
11:00 +13°C° 0.1 mm 5 mps 734 mmHg 84%
12:00 +14°C° 0.1 mm 6 mps 734 mmHg 80%
13:00 +14°C° 0.3 mm 6 mps 735 mmHg 80%
14:00 +14°C° 0.3 mm 7 mps 735 mmHg 80%
15:00 +13°C° 0.3 mm 8 mps 736 mmHg 79%
16:00 +12°C° 0.2 mm 7 mps 736 mmHg 82%
17:00 +11°C° 0.2 mm 7 mps 737 mmHg 85%
18:00 +10°C° 0.2 mm 7 mps 737 mmHg 88%
19:00 +10°C° 0.1 mm 7 mps 738 mmHg 88%
20:00 +10°C° 0.1 mm 7 mps 738 mmHg 88%
21:00 +10°C° 0.1 mm 7 mps 739 mmHg 88%
22:00 +10°C° 0 mm 6 mps 739 mmHg 87%
23:00 +9°C° 0 mm 6 mps 739 mmHg 87%

6 October, Tuesday

Time Temperature Precipitation Wind Pressure Humidity
00:00 +9°C° 0 mm 6 mps 740 mmHg 87%
01:00 +9°C° 0 mm 6 mps 740 mmHg 88%
02:00 +9°C° 0 mm 6 mps 740 mmHg 89%
03:00 +9°C° 0 mm 5 mps 740 mmHg 90%
04:00 +9°C° 0.2 mm 5 mps 741 mmHg 90%
05:00 +9°C° 0.2 mm 5 mps 741 mmHg 91%
06:00 +9°C° 0.2 mm 5 mps 742 mmHg 91%
07:00 +9°C° 0.1 mm 5 mps 742 mmHg 89%
08:00 +9°C° 0.1 mm 6 mps 742 mmHg 87%
09:00 +9°C° 0.1 mm 6 mps 743 mmHg 84%
10:00 +10°C° 0 mm 5 mps 743 mmHg 80%
11:00 +12°C° 0 mm 5 mps 743 mmHg 76%
12:00 +12°C° 0 mm 5 mps 743 mmHg 72%
13:00 +12°C° 0 mm 5 mps 744 mmHg 72%
14:00 +12°C° 0 mm 5 mps 744 mmHg 73%
15:00 +11°C° 0 mm 4 mps 744 mmHg 73%
16:00 +11°C° 0 mm 4 mps 744 mmHg 74%
17:00 +10°C° 0 mm 4 mps 744 mmHg 74%
18:00 +10°C° 0 mm 3 mps 745 mmHg 75%
19:00 +9°C° 0 mm 3 mps 745 mmHg 78%
20:00 +8°C° 0 mm 3 mps 745 mmHg 82%
21:00 +8°C° 0 mm 2 mps 745 mmHg 85%
22:00 +7°C° 0 mm 2 mps 746 mmHg 87%
23:00 +7°C° 0 mm 2 mps 746 mmHg 89%
Show more